Location: *
(43.9900°N, 3.4811°E)
Time: 22:37:11
(UTC+00:00)

Cosmos 2327 Rocket - Pass Details

Date: 25 August 2019
Orbit: 944 x 1008 km, 83.0° (Epoch: 16 September)

Event Time Altitude Azimuth Distance (km) Brightness Sun altitude
Rises 21:31:13 0° 352° (N) 3,747 8.5 -27.2°
Reaches altitude 10° 21:33:46 10° 353° (N) 2,790 7.6 -27.5°
Maximum altitude 21:40:13 83° 82° (E) 1,011 4.4 -28.2°
Enters shadow 21:40:39 77° 140° (SE) 1,026 4.3 -28.2°
